Regional Weather Roundup
Issued by NWS Northern Indiana

Home | Current Version | Previous Version | Graphics & Text | Print | Product List | Glossary On
Versions: 1 2 3 4 5 6 7 8 9 10 11 12 13 14 15 16 17 18 19 20 21 22 23 24 25 26 27 28 29 30 31 32 33 34 35 36 37 38 39 40 41 42 43 44 45 46 47 48 49 50
000
ASUS43 KIWX 020100
RWRIWX

KIWX WEATHER ROUNDUP
NATIONAL WEATHER SERVICE NORTHERN INDIANA
900 PM EDT WED OCT 01 2014

NOTE: "FAIR" INDICATES FEW OR NO CLOUDS BELOW 12,000 FEET WITH NO
SIGNIFICANT WEATHER AND/OR OBSTRUCTIONS TO VISIBILITY.

* THESE STATIONS ARE NOT UNDER NWS QUALITY CONTROL. THEY ALSO MAY NOT
  REPORT WEATHER SUCH AS PRECIPITATION OR FOG.

INZ001>027-020200-
NORTHERN INDIANA

CITY           SKY/WX    TMP DP  RH WIND       PRES   REMARKS
GARY*          MOCLDY    66  52  59 SE10      29.92S
SOUTH BEND     NOT AVBL
GOSHEN         CLEAR     57  50  77 E6        29.98
WARSAW*        CLEAR     55  50  82 E6        29.99S
ANGOLA*        CLEAR     57  48  72 SE5       30.01R
FORT WAYNE     PTCLDY    56  49  77 E5        30.01R
PERU/GRISSOM   CLEAR     60  54  81 E6        29.97S

$$
INZ028>050-020200-
CENTRAL INDIANA

CITY           SKY/WX    TMP DP  RH WIND       PRES   REMARKS
LAFAYETTE      PTCLDY    64  57  78 E7        29.93R
KOKOMO*        CLEAR     57  48  72 SE5       29.98R
MUNCIE*        CLEAR     59  50  72 SE6       29.99R
INDIANAPOLIS   PTCLDY    69  57  65 E9        29.95S

$$
MIZ043>046-050>051-056>058-064>065-071>073-077>080-020200-
SOUTHWEST LOWER MICHIGAN

CITY           SKY/WX    TMP DP  RH WIND       PRES   REMARKS
BATTLE CREEK   PTCLDY    59  49  69 SE6       30.01R
BENTON HARBOR  CLEAR     59  51  75 SE9       29.95S
COLDWATER*     CLEAR     56  50  79 CALM      30.01R
HILLSDALE*     CLEAR     53  51  92 CALM      30.02S
GRAND RAPIDS   MOCLDY    56  52  86 E3        30.00R
STURGIS*       PTCLDY    57  48  72 E6        29.99S
THREE RIVERS*  FAIR      59  51  73 SE3       30.00R

$$
OHZ001>008-015>018-024>025-020200-
NORTHWEST OHIO

CITY           SKY/WX    TMP DP  RH WIND       PRES   REMARKS
DEFIANCE       CLEAR     53  49  86 CALM      30.02R
FINDLAY        CLEAR     58  49  72 E3        30.01R
TOLEDO EXPRESS CLEAR     56  53  90 CALM      30.02R
TOLEDO METCALF CLEAR     58  54  86 E3        30.03S
LIMA           CLEAR     57  49  74 E6        30.02R

$$
AND FOR LAKE MICHIGAN COASTAL AND OPEN LAKE BUOY OBSERVATIONS

STATION/POSITION TEMP    WIND        PRES    VSBY  WAVE
                 AIR SEA DIR/SP/G                  HT/PER
                 (F)     (DEG/KT/KT) (MB)    (MI)  (FT/S)
CALUMET HARBOR    67     120/  8/ 12 1011.9S
MICHIGAN CITY     65     120/  9/ 11   N/A
SAINT JOSEPH      63      CALM  /  7 1014.9R
SOUTH LAKE BUOY   63 62  120/ 12/ 14 1013.7R         2/ 3

$$
&&



USA.gov is the U.S. government's official web portal to all federal, state and local government web resources and services.